Cloud_Cover
0 0 0 0 1 4 1 5 5 99 100 100 100 97 63 100 78 8 8 43 100 86 29 2 0 0 0 0 0 0 0 0 0 0 0 0 0 0 0 0 0 0 0 0
0 0 0 0 0 0 0 0 0 0 42 100 100 88 72 100 100 100 40 5 89 97 14 66 21 0 0 0 0 0 0 0 0 0 0 0 0 0 0 0 0 0 0 5
0 0 0 0 0 0 0 0 0 0 0 100 100 100 50 100 100 90 100 100 74 96 97 56 58 85 14 1 0 0 0 0 0 0 1 4 4 0 5 0 0 0 5 4
0 0 0 0 0 0 0 0 0 0 0 0 10 100 100 99 97 100 100 100 100 88 60 100 42 59 45 100 100 69 76 88 100 33 0 27 100 26 5 5 5 5 48 5
0 0 0 0 0 0 0 0 0 0 0 0 0 88 7 100 95 92 100 100 100 100 99 100 84 11 37 9 60 100 100 15 64 82 59 72 100 96 100 100 64 100 69 11
9 4 0 0 0 0 0 0 0 0 2 0 2 0 96 100 100 89 43 100 100 100 87 31 92 100 100 100 100 100 98 89 100 100 100 100 100 100 96 100 100 100 98 30
92 100 66 35 0 10 5 0 0 0 4 4 0 0 1 98 87 100 100 91 91 100 100 100 17 94 72 90 100 71 52 94 88 68 93 100 100 100 91 94 95 100 46 78
82 90 88 100 43 0 0 15 3 0 0 0 0 0 0 1 100 100 100 100 13 30 100 100 96 23 49 77 69 66 88 95 100 100 100 100 67 86 33 100 94 54 30 83
100 100 100 100 100 89 29 100 88 13 3 0 0 0 0 0 0 82 100 100 99 100 56 15 100 100 100 100 100 100 100 100 100 100 100 100 92 88 100 100 100 43 75 96
100 100 100 100 100 100 100 46 49 92 4 8 2 0 0 0 0 0 2 19 95 99 20 89 100 100 100 100 100 100 100 100 67 100 100 100 100 100 100 100 96 85 81 100
100 100 100 100 100 100 100 86 88 12 65 4 23 1 0 0 0 0 0 0 0 16 56 5 57 42 38 100 100 97 86 96 81 100 100 100 100 100 100 100 100 92 100 67
100 100 100 100 100 100 100 100 58 87 0 2 28 0 0 0 0 0 0 0 0 0 9 96 52 79 98 100 100 100 100 100 100 100 100 100 100 100 100 100 91 100 100 100
100 100 100 100 100 100 60 35 95 95 75 65 5 0 0 0 0 0 0 89 92 96 100 93 98 92 100 100 100 100 100 100 100 100 100 100 99 38 7 73 100 100 100 100
100 100 100 100 100 68 7 27 21 77 61 14 0 0 0 0 0 0 66 66 93 100 100 100 100 100 100 100 100 100 100 100 100 100 100 100 96 94 90 100 100 100 100 100
100 100 100 100 100 95 34 6 5 12 7 4 1 0 0 0 13 88 100 100 100 100 100 100 100 100 100 100 100 100 100 100 100 100 100 94 100 100 100 100 100 100 100 100
100 92 100 100 100 100 100 16 5 51 4 5 0 0 4 71 100 100 100 100 100 100 100 100 100 100 100 100 100 100 100 100 100 100 100 100 100 100 100 100 100 100 100 100
84 100 100 100 95 70 8 100 100 26 20 7 35 41 90 100 100 100 100 100 100 100 100 100 100 100 100 100 100 100 100 100 100 100 100 100 100 100 100 100 100 100 99 100
0 80 100 100 100 100 100 100 90 94 97 100 56 96 100 100 100 100 100 100 100 100 100 100 100 100 100 100 100 100 100 100 100 100 100 100 100 100 100 100 100 100 100 100
56 88 88 94 100 96 100 98 100 98 66 100 100 100 100 100 100 100 100 100 100 100 98 70 100 100 100 100 100 100 100 100 100 100 100 100 100 100 100 100 99 100 100 100
81 41 4 34 98 95 37 56 21 99 100 100 100 100 100 100 100 100 100 100 99 100 100 100 100 100 100 100 100 100 100 100 100 100 100 100 100 100 100 100 100 100 100 100
100 94 41 38 68 74 99 58 92 100 100 100 100 100 100 99 100 100 100 100 100 100 94 100 100 100 100 100 100 100 100 100 100 100 100 100 100 100 100 99 98 100 100 100
100 100 100 100 100 100 100 100 100 84 94 100 100 100 100 94 100 100 50 21 72 99 100 100 100 100 100 100 100 100 100 100 100 100 100 100 100 100 100 100 100 100 100 100
100 100 100 100 100 100 100 100 100 100 100 100 100 100 100 100 100 100 100 100 100 100 100 100 100 100 100 100 100 100 100 100 100 93 100 100 100 100 100 100 100 100 96 23
100 100 100 100 100 100 100 100 100 100 100 100 100 100 100 100 100 100 100 100 100 100 100 100 100 100 100 100 100 100 100 100 100 100 100 87 100 73 56 21 33 37 32 8
100 100 100 100 100 100 100 100 100 100 100 100 100 100 100 100 100 100 100 100 100 100 100 100 100 95 83 92 95 96 93 69 96 41 65 75 41 67 95 100 98 71 51 51
100 100 100 100 100 100 100 100 100 100 100 100 100 100 100 100 100 100 100 100 100 100 100 100 100 100 100 100 60 27 41 36 51 58 43 80 22 9 76 100 100 99 64 98
100 100 100 100 100 100 100 100 100 100 100 100 100 90 100 100 100 100 100 100 100 100 100 100 100 94 83 92 69 50 65 75 13 10 16 4 15 6 5 13 97 100 100 100